FW5940 Weather Reports


Display with metric or nautical units.
time (UTC)temp
F
wind
direction
speed
MPH
gust
MPH
rain 1hr
in
rain 24hr
in
rain mn
in
humidity
%
barometer
mb
20260510020516 48 79 1.0 2.0 0.00 0.00 0.00 84 1013.0
20260510015536 48 78 1.0 3.0 0.00 0.00 0.00 83 1013.1
20260510014516 48 78 0.0 1.0 0.00 0.00 0.00 82 1013.2
20260510013516 49 0.0 0.0 0.00 0.00 0.00 81 1013.2
20260510012517 50 78 1.0 2.0 0.00 0.00 0.00 80 1013.2
20260510011517 50 77 1.0 2.0 0.00 0.00 0.00 79 1013.3
20260510010536 51 76 1.0 2.0 0.00 0.00 0.00 78 1013.4
20260510005515 52 75 1.0 2.0 0.00 0.00 0.00 77 1013.4
20260510004516 52 76 2.0 3.0 0.00 0.00 0.00 75 1013.5
20260510003515 53 93 2.0 5.0 0.00 0.00 0.00 74 1013.5
20260510002517 53 107 2.0 6.0 0.00 0.00 0.00 73 1013.6
20260510001516 54 90 2.0 7.0 0.00 0.00 0.00 72 1013.6
20260510000517 54 95 4.0 10.0 0.00 0.00 0.00 71 1013.7
20260509235515 55 98 3.0 9.0 0.00 0.00 0.00 71 1013.8
20260509234515 55 95 4.0 8.0 0.00 0.00 0.00 70 1013.9
20260509233516 55 85 3.0 7.0 0.00 0.00 0.00 70 1014.0
20260509232535 55 81 3.0 8.0 0.00 0.00 0.00 70 1014.2
20260509231537 55 85 2.0 4.0 0.00 0.00 0.00 69 1014.3
20260509230515 55 77 2.0 5.0 0.00 0.00 0.00 68 1014.3
20260509225515 55 86 3.0 7.0 0.00 0.00 0.00 69 1014.4
20260509224515 54 99 3.0 7.0 0.00 0.00 0.00 71 1014.4
20260509223518 54 83 1.0 4.0 0.00 0.00 0.00 71 1014.4
20260509222516 54 69 1.0 2.0 0.00 0.00 0.00 69 1014.5
20260509221515 55 68 1.0 2.0 0.00 0.00 0.00 68 1014.4
20260509220517 55 68 2.0 4.0 0.00 0.00 0.00 67 1014.6
20260509215515 55 66 2.0 4.0 0.00 0.00 0.00 67 1014.6
20260509214517 55 84 2.0 5.0 0.00 0.00 0.00 67 1014.6
20260509213515 56 79 2.0 6.0 0.00 0.00 0.00 67 1014.6
20260509212517 56 93 2.0 3.0 0.00 0.00 0.00 67 1014.6
20260509211516 56 65 3.0 5.0 0.00 0.00 0.00 67 1014.7
20260509210536 56 76 2.0 3.0 0.00 0.00 0.00 67 1014.8
20260509205517 56 84 1.0 4.0 0.00 0.00 0.00 67 1015.0
20260509204516 57 92 1.0 3.0 0.00 0.00 0.00 65 1015.0
20260509203517 57 91 2.0 4.0 0.00 0.00 0.00 65 1015.0
20260509202516 58 66 1.0 3.0 0.00 0.00 0.00 63 1015.0
20260509201516 58 90 1.0 3.0 0.00 0.00 0.00 62 1015.0
20260509200516 59 85 2.0 4.0 0.00 0.00 0.00 62 1015.1
20260509195515 59 82 2.0 7.0 0.00 0.00 0.00 62 1015.1
20260509194516 59 65 2.0 4.0 0.00 0.00 0.00 62 1015.2
20260509193516 59 62 3.0 4.0 0.00 0.00 0.00 63 1015.2
20260509192515 60 62 2.0 3.0 0.00 0.00 0.00 62 1015.2
20260509191516 60 75 2.0 3.0 0.00 0.00 0.00 62 1015.3
20260509190515 61 75 1.0 3.0 0.00 0.00 0.00 61 1015.2
20260509185516 61 68 3.0 4.0 0.00 0.00 0.00 60 1015.1
20260509184515 62 72 2.0 4.0 0.00 0.00 0.00 59 1015.1
20260509183516 63 80 2.0 4.0 0.00 0.00 0.00 57 1015.0
20260509182519 64 58 3.0 5.0 0.00 0.00 0.00 55 1014.8
20260509181518 65 62 4.0 6.0 0.00 0.00 0.00 54 1014.8
20260509180515 65 62 6.0 10.0 0.00 0.00 0.00 53 1014.7
20260509175518 66 67 5.0 9.0 0.00 0.00 0.00 53 1014.7
20260509174518 66 62 6.0 11.0 0.00 0.00 0.00 51 1014.8
20260509173515 67 66 5.0 10.0 0.00 0.00 0.00 50 1014.7
20260509172517 68 64 6.0 13.0 0.00 0.00 0.00 49 1014.7
20260509171516 69 65 4.0 9.0 0.00 0.00 0.00 48 1014.8
20260509170515 69 62 6.0 11.0 0.00 0.00 0.00 48 1014.8
20260509165516 69 76 5.0 10.0 0.00 0.00 0.00 48 1014.8
20260509164517 69 96 5.0 11.0 0.00 0.00 0.00 48 1014.8
20260509163516 69 108 5.0 10.0 0.00 0.00 0.00 48 1014.8
20260509162515 69 104 4.0 10.0 0.00 0.00 0.00 48 1014.9
20260509161517 69 85 4.0 12.0 0.00 0.00 0.00 48 1014.8
20260509160515 70 67 3.0 8.0 0.00 0.00 0.00 48 1014.8
20260509155515 70 59 5.0 10.0 0.00 0.00 0.00 48 1014.8
20260509154516 70 60 4.0 10.0 0.00 0.00 0.00 48 1015.1
20260509153516 71 98 3.0 7.0 0.00 0.00 0.00 48 1014.9
20260509152519 71 81 5.0 11.0 0.00 0.00 0.00 48 1014.9
20260509151535 70 101 3.0 6.0 0.00 0.00 0.00 48 1015.1
20260509150519 70 68 2.0 7.0 0.00 0.00 0.00 48 1015.3
20260509145516 71 64 6.0 10.0 0.00 0.00 0.00 48 1015.3
20260509144515 69 75 4.0 8.0 0.00 0.00 0.00 50 1015.4
20260509143518 70 62 3.0 9.0 0.00 0.00 0.00 49 1015.4
20260509142516 69 79 3.0 8.0 0.00 0.00 0.00 50 1015.5
20260509141517 71 52 7.0 10.0 0.00 0.00 0.00 48 1015.5
20260509140516 71 28 6.0 12.0 0.00 0.00 0.00 49 1015.5
20260509135516 70 67 6.0 11.0 0.00 0.00 0.00 50 1015.6
20260509134518 69 13 4.0 7.0 0.00 0.00 0.00 49 1015.6
20260509133517 69 48 7.0 12.0 0.00 0.00 0.00 50 1015.8
20260509132516 71 21 8.0 13.0 0.00 0.00 0.00 48 1015.8
20260509131517 71 17 7.0 12.0 0.00 0.00 0.00 48 1015.9
20260509130516 70 31 5.0 11.0 0.00 0.00 0.00 48 1015.9
20260509125535 71 101 5.0 9.0 0.00 0.00 0.00 48 1016.0
20260509124536 71 96 3.0 8.0 0.00 0.00 0.00 48 1016.1
20260509123515 69 69 4.0 7.0 0.00 0.00 0.00 50 1016.2
20260509122517 71 88 4.0 8.0 0.00 0.00 0.00 48 1016.3
20260509121516 70 75 4.0 9.0 0.00 0.00 0.00 49 1016.4
20260509120516 70 99 3.0 9.0 0.00 0.00 0.00 51 1016.5
20260509115538 69 99 4.0 9.0 0.00 0.00 0.00 52 1016.6
20260509114515 69 89 4.0 10.0 0.00 0.00 0.00 52 1016.7
20260509113558 69 68 4.0 9.0 0.00 0.00 0.00 51 1016.6
20260509112516 68 70 5.0 14.0 0.00 0.00 0.00 54 1016.7
20260509111515 69 121 3.0 7.0 0.00 0.00 0.00 55 1016.7
20260509110516 68 90 4.0 9.0 0.00 0.00 0.00 57 1016.9
20260509105516 68 112 5.0 10.0 0.00 0.00 0.00 58 1017.0
20260509104516 68 92 5.0 9.0 0.00 0.00 0.00 56 1017.1
20260509103515 67 97 4.0 10.0 0.00 0.00 0.00 56 1017.2
20260509102516 67 101 6.0 12.0 0.00 0.00 0.00 57 1017.3
20260509101536 67 95 5.0 10.0 0.00 0.00 0.00 56 1017.4
20260509100515 66 103 5.0 13.0 0.00 0.00 0.00 57 1017.5
20260509095538 66 107 5.0 10.0 0.00 0.00 0.00 60 1017.5
20260509094516 65 84 4.0 8.0 0.00 0.00 0.00 64 1017.5
20260509093516 63 70 5.0 10.0 0.00 0.00 0.00 65 1017.6
20260509092535 63 58 4.0 9.0 0.00 0.00 0.00 69 1017.7
20260509091516 62 74 3.0 6.0 0.00 0.00 0.00 69 1017.7
20260509090515 61 124 3.0 6.0 0.00 0.00 0.00 71 1017.8
20260509085517 60 104 3.0 6.0 0.00 0.00 0.00 71 1017.8
20260509084515 59 81 4.0 7.0 0.00 0.00 0.00 74 1017.8
20260509083518 57 46 3.0 5.0 0.00 0.00 0.00 77 1017.7
20260509082516 56 77 3.0 5.0 0.00 0.00 0.00 77 1017.7
20260509081515 55 50 3.0 5.0 0.00 0.00 0.00 78 1017.7
20260509080557 55 32 3.0 5.0 0.00 0.00 0.00 79 1017.8
20260509075515 55 82 1.0 4.0 0.00 0.00 0.00 79 1017.8
20260509074517 55 124 1.0 4.0 0.00 0.00 0.00 78 1017.8
20260509073515 55 123 2.0 3.0 0.00 0.00 0.00 78 1017.8
20260509072516 55 120 1.0 2.0 0.00 0.00 0.00 78 1017.7
20260509071516 54 120 3.0 4.0 0.00 0.00 0.00 78 1017.6
20260509070515 54 123 2.0 4.0 0.00 0.00 0.00 79 1017.7
20260509065516 54 139 1.0 4.0 0.00 0.00 0.00 79 1017.7
20260509064515 53 140 0.0 2.0 0.00 0.00 0.00 79 1017.7
20260509063536 53 140 0.0 1.0 0.00 0.00 0.00 79 1017.8
20260509062515 52 140 1.0 3.0 0.00 0.00 0.00 80 1017.9
20260509061516 51 141 1.0 3.0 0.00 0.00 0.00 81 1018.0
20260509060517 51 174 1.0 4.0 0.00 0.00 0.00 82 1018.0
20260509055518 50 182 1.0 3.0 0.00 0.00 0.00 83 1018.0
20260509054517 50 183 1.0 4.0 0.00 0.00 0.00 84 1018.0
20260509053515 49 186 2.0 4.0 0.00 0.00 0.00 85 1017.9
20260509052516 48 192 2.0 5.0 0.00 0.00 0.00 87 1017.8
20260509051516 46 198 2.0 5.0 0.00 0.00 0.00 88 1017.7
20260509050516 46 200 1.0 2.0 0.00 0.00 0.00 88 1017.6
20260509045518 45 200 0.0 2.0 0.00 0.00 0.00 88 1017.4
20260509044517 45 200 2.0 4.0 0.00 0.00 0.00 88 1017.2
20260509043516 45 255 2.0 3.0 0.00 0.00 0.00 88 1017.0
20260509042517 45 260 1.0 2.0 0.00 0.00 0.00 88 1016.9
20260509041518 45 27 1.0 2.0 0.00 0.00 0.00 88 1016.8
20260509040515 45 29 1.0 2.0 0.00 0.00 0.00 89 1016.7
20260509035517 44 28 0.0 2.0 0.00 0.00 0.00 89 1016.8
20260509034516 44 44 0.0 1.0 0.00 0.00 0.00 89 1016.8
20260509033517 43 44 0.0 1.0 0.00 0.00 0.00 89 1016.8
20260509032516 43 44 0.0 2.0 0.00 0.00 0.00 89 1016.9
20260509031515 43 44 0.0 1.0 0.00 0.00 0.00 89 1016.8
20260509030516 43 44 0.0 1.0 0.00 0.00 0.00 89 1016.8
20260509025515 43 44 0.0 2.0 0.00 0.00 0.00 89 1016.7
20260509024517 43 0.0 0.0 0.00 0.00 0.00 89 1016.7
20260509023516 43 0.0 0.0 0.00 0.00 0.00 88 1016.7
20260509022517 44 44 1.0 2.0 0.00 0.00 0.00 88 1016.6
20260509021516 44 44 0.0 1.0 0.00 0.00 0.00 88 1016.5